View from above orbital plane
|
View from above satellite
|
Ground track
|
The orbit data is extracted from the following two-line orbital elements,
1 32376U 07059A 21055.46081377 -.00000089 00000-0 -45863-5 0 9991
2 32376 97.8864 240.9597 0001456 88.6208 271.5199 14.82156819714909
Epoch (UTC): | 24 February 2021 11:03:34 |
Eccentricity: | 0.0001456 |
inclination: | 97.8864° |
perigee height: | 621 km |
apogee height: | 623 km |
right ascension of ascending node: | 240.9597° |
argument of perigee: | 88.6208° |
revolutions per day: | 14.82156819 |
mean anomaly at epoch: | 271.5199° |
orbit number at epoch: | 71490 |
The dashed part of the orbit path shows where the satellite is in the earth's shadow,
|
|